[Date Prev][Date Next][Thread Prev][Thread Next] - [Date Index][Thread Index][Author Index]
2 Line ISS Keps 11-18
- Subject: [sarex] 2 Line ISS Keps 11-18
- From: "Dave Larsen PhD" <doc@xxxxxxxxxxx>
- Date: Thu, 17 Nov 2005 19:25:51 -0800
ISS
1 25544U 98067A 05321.81707256 .00015912 00000-0 12176-3 0 7768
2 25544 051.6440 193.4984 0008119 294.6213 156.8826 15.72300844399861
----
Via the sarex mailing list at AMSAT.ORG courtesy of AMSAT-NA.
To unsubscribe, send "unsubscribe sarex" to Majordomo@amsat.org
AMSAT Home